Tracking 23940 objects as of 1-Dec-2021
HD Live streaming from Space Station
objects crossing your sky now

PEGASUS DEB

Track PEGASUS DEB now!
10-day predictions


NORAD ID: 39928
Int'l Code: 1994-029AGB
Perigee: 556.9 km
Apogee: 966.6 km
Inclination: 81.0 °
Period: 99.9 minutes
Semi major axis: 7132 km
RCS: 0.0163 m2 (small)
Launch date: May 19, 1994
Source: United States (US)
Launch site: AIR FORCE WESTERN TEST RANGE (AFWTR)

Note: This is SATELLITE DEBRIS
aabbcc
Your satellite tracking list
Your tracking list is empty




NASA's NSSDC Master Catalog

Two Line Element Set (TLE):
1 39928U 94029AGB 21334.93721044  .00001239  00000-0  23114-3 0  9997
2 39928  81.0304 211.6757 0287240 201.7985 157.0782 14.41175040392813
Source of the keplerian elements: AFSPC